Regional Weather Roundup
Issued by NWS

Home | Current Version | Previous Version | Text Only | Print | Product List | Glossary Off
Versions: 1 2 3 4 5 6 7 8 9 10 11 12 13 14 15 16 17 18 19 20 21 22 23 24 25 26 27 28 29 30 31 32 33 34 35 36 37 38 39 40 41 42 43 44 45 46 47 48 49 50

000
ASUS45 KBOU 250107
RWRCO

WEATHER ROUNDUP FOR COLORADO
NATIONAL WEATHER SERVICE DENVER/BOULDER CO
600 PM MST WED DEC 24 2014

NOTE: "FAIR" INDICATES FEW OR NO CLOUDS BELOW 12000 FEET WITH NO
SIGNIFICANT WEATHER AND/OR OBSTRUCTIONS TO VISIBILITY.

COZ001>005-013-030-031-250200-
...NORTHWEST COLORADO...

CITY           SKY/WX    TMP DP  RH WIND       PRES   REMARKS
CRAIG          CLOUDY    25  12  58 E3        29.77F
HAYDEN         CLOUDY    19   9  63 E13       29.76F WCI   7
MEEKER         CLOUDY    25  14  63 VRB3      29.78F
MOUNT WERNER   NOT AVBL
STEAMBOAT SPGS CLOUDY    18  10  70 E3        29.78F
WALDEN         CLOUDY    23  12  63 S13       29.73S WCI  11
$$

COZ006>008-011-250200-
...WEST CENTRAL VALLEYS...

CITY           SKY/WX    TMP DP  RH WIND       PRES   REMARKS
GRAND JUNCTION CLOUDY    28  22  78 CALM      29.88F
MONTROSE       CLOUDY    29  17  61 W5        29.89F WCI  24
EAGLE          CLEAR    N/A N/A N/A CALM      29.90F
RIFLE          CLOUDY    27  17  66 CALM      29.89F
DELTA          CLOUDY    32  16  52 CALM      29.90F
NUCLA          CLOUDY    34  12  40 CALM      29.92F
$$

COZ017>023-064>068-250200-
...SOUTHWEST COLORADO...

CITY           SKY/WX    TMP DP  RH WIND       PRES   REMARKS
DURANGO        CLOUDY    27  11  51 CALM      29.95F
CORTEZ         CLEAR     29  18  63 CALM      29.93F
PAGOSA SPRINGS CLOUDY    28   5  37 CALM      29.95S
TELLURIDE      CLOUDY    28  15  58 S3        29.92F
WOLF CREEK PAS MOCLDY    14   5  67 MISG      29.91S
$$

COZ009-010-012-014-032>034-037-058>063-250200-
...CENTRAL COLORADO...

CITY           SKY/WX    TMP DP  RH WIND       PRES   REMARKS
ASPEN          MOCLDY    18   8  65 S5        29.83F WCI  11
BUENA VISTA    CLEAR     26  12  55 SW3       29.77S
COPPER MTN     MOCLDY    23   9  54 SW8       29.81F WCI  14
BERTHOUD PASS  FAIR      16  10  79 MISG      29.73S
COTTONWOOD PAS CLEAR     34  10  37 W20G29    29.78S WCI  22
GUNNISON       MOCLDY     3 -11  51 CALM      29.96F
KREMMLING      MOCLDY     7   0  72 CALM      29.85F
LEADVILLE      PTCLDY    24  10  55 N9        29.79F WCI  14
MONARCH PASS   MOCLDY    18  12  79 W39G48    29.93S WCI  -4
SALIDA         CLEAR     34  10  35 SW17G35   29.83S WCI  24
SUNLIGHT       CLOUDY   N/A N/A N/A MISG      29.84F
WILKERSON PASS PTCLDY    21  12  68 SW12G21   29.78F WCI   9
$$

COZ069>075-250200-
...SAN LUIS VALLEY/SANGRE DE CRISTO MOUNTAINS...

CITY           SKY/WX    TMP DP  RH WIND       PRES   REMARKS
ALAMOSA        MOCLDY    17   5  59 E7        29.89F WCI   8
LA VETA PASS   MOCLDY    19   5  53 MISG      29.79S
SAGUACHE       MOCLDY    12   3  67 NW7       29.91F WCI   2
$$

COZ035-036-038>040-250200-
...NORTHERN COLORADO FRONT RANGE...

CITY           SKY/WX    TMP DP  RH WIND       PRES   REMARKS
DENVER INTL AP CLOUDY    37  23  56 S8        29.58F
DMNS CITY PARK   N/A     44  19  37 SE3       29.57F
AURORA         MOCLDY    37  21  51 S6        29.60F
FRONT RANGE AP NOT AVBL
ERIE MUNI ARPT   N/A    N/A N/A N/A MISG        N/A
BOULDER MUN AP CLOUDY    50  12  22 SW20      29.57F
CENTENNIAL     CLOUDY    39  23  52 S9        29.59F
BROOMFIELD     NOT AVBL
FORT COLLINS   CLOUDY    34  12  40 CALM      29.59F
LONGMONT       CLOUDY    49  15  25 W13       29.58F
$$

COZ041-046-047-076>085-087-088-250200-
...PIKES PEAK/PALMER DIVIDE AND SOUTHERN FOOTHILLS...

CITY           SKY/WX    TMP DP  RH WIND       PRES   REMARKS
COLO. SPRINGS  CLOUDY    28  11  48 VRB5      29.67F WCI  23
A. F. ACADEMY  CLOUDY    30  15  53 S5        29.66F WCI  26
ELLICOTT       NOT AVBL
FALCON         CLOUDY    27  15  59 NW3       29.67F
FORT CARSON    CLOUDY    30  15  54 NE2       29.66F
LIMON          PTCLDY    33  14  45 S8        29.65F WCI  26
MONUMENT HILL  CLOUDY    34  19  55 S9        29.64F WCI  26
TRINIDAD       PTCLDY    28  16  60 W15       29.71F WCI  16
$$

COZ042>045-048>051-090-091-250200-
...NORTHEAST COLORADO...

CITY           SKY/WX    TMP DP  RH WIND       PRES   REMARKS
GREELEY ARPT   CLOUDY    30  10  43 CALM      29.57F
AKRON          PTCLDY    34  23  64 S9        29.59F WCI  27
BURLINGTON     MOCLDY    34  20  56 SW15      29.66F WCI  24
WRAY           CLOUDY    37  26  65 SW8       29.63S
STERLING       PTCLDY    27  23  86 W5        29.58F WCI  21
HOLYOKE        CLOUDY    36  28  75 SW6       29.61F
FORT MORGAN    PTCLDY    32  20  62 E5        29.59F WCI  27
$$

COZ086-089-092>099-250200-
...SOUTHEAST COLORADO...

CITY           SKY/WX    TMP DP  RH WIND       PRES   REMARKS
PUEBLO         MOCLDY    30  17  58 N6        29.66F WCI  24
LA JUNTA       PTCLDY    39  19  44 S3        29.66F
LAMAR          PTCLDY    30  15  53 SW3       29.67F
SPRINGFIELD      N/A     32  15  49 SW7       29.70F WCI  26
$$


USA.gov is the U.S. government's official web portal to all federal, state and local government web resources and services.